Location: ????????
(55.8351°N, 38.7040°E)
Time: 09:51:56
(UTC+00:00)

Cosmos 1340 Rocket - Pass Details

Date: 14 April 2024
Orbit: 507 x 543 km, 81.2° (Epoch: 28 May)

Event Time Altitude Azimuth Distance (km) Brightness Sun altitude
Rises 23:06:05 0° 107° (ESE) 2,636 6.4 -21.4°
Enters shadow 00:08:16 -66° 191° (S) 12,238 9.6 -16.4°
Maximum altitude 00:44:07 35° 95° (E) 853 4.2 -12.8°
